Tracking 26442 objects as of 6-Dec-2022
HD Live streaming from Space Station
objects crossing your sky now

COSMOS 469

Track COSMOS 469 now!
10-day predictions
COSMOS 469 is classified as:


NORAD ID: 5721
Int'l Code: 1971-117A
Perigee: 944.6 km
Apogee: 1,025.5 km
Inclination: 64.5 °
Period: 104.6 minutes
Semi major axis: 7356 km
RCS: 2.893 m2 (large)
Launch date: December 25, 1971
Source: Commonwealth of Independent States (former USSR) (CIS)
Launch site: TYURATAM MISSILE AND SPACE COMPLEX (TTMTR)
aabbcc
Your satellite tracking list
Your tracking list is empty




NASA's NSSDC Master Catalog

Two Line Element Set (TLE):
1 05721U 71117A   22339.61486739 -.00000086  00000-0  49884-5 0  9998
2 05721  64.4873 106.6248 0055012 222.8307 136.8453 13.76047746559670
Source of the keplerian elements: AFSPC